Time,TemperatureF,DewpointF,PressureIn,WindDirection,WindDirectionDegrees,WindSpeedMPH,WindSpeedGustMPH,Humidity,HourlyPrecipIn,Conditions,Clouds,dailyrainin,SoftwareType,DateUTC
2013-03-27 00:00:00,30.6,21.6,30.29,SSE,162,2.0,9.0,69,0.00,,,0.01,Wunderground v.1.15,2013-03-27 05:00:00,
2013-03-27 00:10:00,29.7,21.4,30.28,SSE,159,2.0,9.0,71,0.00,,,0.01,Wunderground v.1.15,2013-03-27 05:10:00,
2013-03-27 00:15:00,29.8,21.9,30.28,SSE,158,4.0,9.0,72,0.00,,,0.01,Wunderground v.1.15,2013-03-27 05:15:00,
2013-03-27 00:25:00,30.2,22.3,30.28,SSE,154,4.0,9.0,72,0.00,,,0.01,Wunderground v.1.15,2013-03-27 05:25:00,
2013-03-27 00:30:00,30.2,21.9,30.29,SSE,158,5.0,9.0,71,0.00,,,0.01,Wunderground v.1.15,2013-03-27 05:30:00,
2013-03-27 00:40:00,30.2,21.9,30.29,SSE,154,4.0,9.0,71,0.00,,,0.01,Wunderground v.1.15,2013-03-27 05:40:00,
2013-03-27 00:45:00,30.0,21.7,30.29,SSE,152,3.0,9.0,71,0.00,,,0.01,Wunderground v.1.15,2013-03-27 05:45:00,
2013-03-27 00:50:00,29.6,21.3,30.29,SSE,152,2.0,9.0,71,0.00,,,0.01,Wunderground v.1.15,2013-03-27 05:50:00,
2013-03-27 01:00:00,29.1,21.5,30.29,SSE,154,3.0,9.0,73,0.00,,,0.01,Wunderground v.1.15,2013-03-27 06:00:00,
2013-03-27 01:10:00,29.0,21.4,30.29,SSE,156,4.0,9.0,73,0.00,,,0.00,Wunderground v.1.15,2013-03-27 06:10:00,
2013-03-27 01:20:00,29.1,21.2,30.29,SSE,158,4.0,9.0,72,0.00,,,0.00,Wunderground v.1.15,2013-03-27 06:20:00,
2013-03-27 01:30:00,29.4,21.5,30.29,South,171,5.0,9.0,72,0.00,,,0.00,Wunderground v.1.15,2013-03-27 06:30:00,
2013-03-27 01:35:00,29.5,21.3,30.29,South,171,5.0,9.0,71,0.00,,,0.00,Wunderground v.1.15,2013-03-27 06:35:00,
2013-03-27 01:45:00,29.6,21.3,30.28,South,182,5.0,9.0,71,0.00,,,0.00,Wunderground v.1.15,2013-03-27 06:45:00,
2013-03-27 01:50:00,29.8,21.2,30.28,South,169,4.0,9.0,70,0.00,,,0.00,Wunderground v.1.15,2013-03-27 06:50:00,
2013-03-27 02:00:00,30.2,21.2,30.28,South,180,5.0,9.0,69,0.00,,,0.00,Wunderground v.1.15,2013-03-27 07:00:00,
2013-03-27 02:10:00,30.1,21.2,30.28,South,173,5.0,9.0,69,0.00,,,0.00,Wunderground v.1.15,2013-03-27 07:10:00,
2013-03-27 02:20:00,30.1,21.5,30.27,South,183,5.0,5.0,70,0.00,,,0.00,Wunderground v.1.15,2013-03-27 07:20:00,
2013-03-27 02:25:00,30.2,21.6,30.27,South,171,6.0,7.0,70,0.00,,,0.00,Wunderground v.1.15,2013-03-27 07:25:00,
2013-03-27 02:30:00,30.2,21.6,30.27,South,169,6.0,9.0,70,0.00,,,0.00,Wunderground v.1.15,2013-03-27 07:30:00,
2013-03-27 02:40:00,30.2,21.6,30.27,SSE,167,6.0,6.0,70,0.00,,,0.00,Wunderground v.1.15,2013-03-27 07:40:00,
2013-03-27 02:50:00,29.8,21.5,30.27,South,174,5.0,9.0,71,0.00,,,0.00,Wunderground v.1.15,2013-03-27 07:50:00,
2013-03-27 03:00:00,29.6,21.3,30.26,SSE,158,5.0,9.0,71,0.00,,,0.00,Wunderground v.1.15,2013-03-27 08:00:00,
2013-03-27 03:05:00,29.6,21.3,30.26,South,170,5.0,9.0,71,0.00,,,0.00,Wunderground v.1.15,2013-03-27 08:05:00,
2013-03-27 03:10:00,29.5,21.6,30.26,SSE,166,5.0,9.0,72,0.00,,,0.00,Wunderground v.1.15,2013-03-27 08:10:00,
2013-03-27 03:20:00,29.3,21.4,30.25,SSE,168,5.0,5.0,72,0.00,,,0.00,Wunderground v.1.15,2013-03-27 08:20:00,
2013-03-27 03:30:00,29.3,21.7,30.25,SSW,198,6.0,6.0,73,0.00,,,0.00,Wunderground v.1.15,2013-03-27 08:30:00,
2013-03-27 03:40:00,28.9,21.3,30.24,SSE,165,5.0,9.0,73,0.00,,,0.00,Wunderground v.1.15,2013-03-27 08:40:00,
2013-03-27 03:50:00,28.7,21.5,30.24,SSE,167,5.0,5.0,74,0.00,,,0.00,Wunderground v.1.15,2013-03-27 08:50:00,
2013-03-27 03:55:00,28.8,21.6,30.24,South,174,5.0,9.0,74,0.00,,,0.00,Wunderground v.1.15,2013-03-27 08:55:00,
2013-03-27 04:00:00,28.7,21.5,30.24,South,173,4.0,9.0,74,0.00,,,0.00,Wunderground v.1.15,2013-03-27 09:00:00,
2013-03-27 04:10:00,28.2,21.0,30.24,South,173,2.0,2.0,74,0.00,,,0.00,Wunderground v.1.15,2013-03-27 09:10:00,
2013-03-27 04:20:00,27.7,20.8,30.24,South,173,1.0,9.0,75,0.00,,,0.00,Wunderground v.1.15,2013-03-27 09:20:00,
2013-03-27 04:30:00,27.6,21.0,30.24,South,173,2.0,2.0,76,0.00,,,0.00,Wunderground v.1.15,2013-03-27 09:30:00,
2013-03-27 04:40:00,27.8,21.5,30.24,SSE,158,2.0,2.0,77,0.00,,,0.00,Wunderground v.1.15,2013-03-27 09:40:00,
2013-03-27 04:45:00,27.8,21.5,30.23,SSE,158,2.0,9.0,77,0.00,,,0.00,Wunderground v.1.15,2013-03-27 09:45:00,
2013-03-27 04:55:00,27.6,21.3,30.23,SSE,157,2.0,9.0,77,0.00,,,0.00,Wunderground v.1.15,2013-03-27 09:55:00,
2013-03-27 05:00:00,27.4,21.1,30.23,SSE,153,1.0,9.0,77,0.00,,,0.00,Wunderground v.1.15,2013-03-27 10:00:00,
2013-03-27 05:10:00,27.3,21.0,30.23,SSE,157,2.0,9.0,77,0.00,,,0.00,Wunderground v.1.15,2013-03-27 10:10:00,
2013-03-27 05:20:00,27.1,20.8,30.23,SSE,147,3.0,3.0,77,0.00,,,0.00,Wunderground v.1.15,2013-03-27 10:20:00,
2013-03-27 05:30:00,26.8,20.9,30.23,SE,138,3.0,3.0,78,0.00,,,0.00,Wunderground v.1.15,2013-03-27 10:30:00,
2013-03-27 05:35:00,26.6,20.7,30.23,SE,140,2.0,4.0,78,0.00,,,0.00,Wunderground v.1.15,2013-03-27 10:35:00,
2013-03-27 05:45:00,26.2,20.3,30.23,SE,140,3.0,9.0,78,0.00,,,0.00,Wunderground v.1.15,2013-03-27 10:45:00,
2013-03-27 05:50:00,26.1,20.5,30.23,SE,140,2.0,2.0,79,0.00,,,0.00,Wunderground v.1.15,2013-03-27 10:50:00,
2013-03-27 06:00:00,25.9,20.3,30.23,SE,140,2.0,6.0,79,0.00,,,0.00,Wunderground v.1.15,2013-03-27 11:00:00,
2013-03-27 06:10:00,25.8,20.5,30.23,SE,140,1.0,6.0,80,0.00,,,0.00,Wunderground v.1.15,2013-03-27 11:10:00,
2013-03-27 06:20:00,25.7,20.4,30.23,SE,141,2.0,6.0,80,0.00,,,0.00,Wunderground v.1.15,2013-03-27 11:20:00,
2013-03-27 06:30:00,25.6,20.3,30.23,SE,136,3.0,3.0,80,0.00,,,0.00,Wunderground v.1.15,2013-03-27 11:30:00,
2013-03-27 06:35:00,25.5,20.2,30.23,SE,136,2.0,6.0,80,0.00,,,0.00,Wunderground v.1.15,2013-03-27 11:35:00,
2013-03-27 06:40:00,25.4,20.1,30.23,SE,136,2.0,6.0,80,0.00,,,0.00,Wunderground v.1.15,2013-03-27 11:40:00,
2013-03-27 06:50:00,25.1,20.1,30.23,SE,137,2.0,6.0,81,0.00,,,0.00,Wunderground v.1.15,2013-03-27 11:50:00,
2013-03-27 07:00:00,24.9,19.9,30.24,SE,138,2.0,6.0,81,0.00,,,0.00,Wunderground v.1.15,2013-03-27 12:00:00,
2013-03-27 07:10:00,24.7,19.7,30.24,SE,138,2.0,6.0,81,0.00,,,0.00,Wunderground v.1.15,2013-03-27 12:10:00,
2013-03-27 07:15:00,24.6,19.9,30.24,SE,138,2.0,6.0,82,0.00,,,0.00,Wunderground v.1.15,2013-03-27 12:15:00,
2013-03-27 07:25:00,24.6,19.9,30.24,SSE,147,2.0,4.0,82,0.00,,,0.00,Wunderground v.1.15,2013-03-27 12:25:00,
2013-03-27 07:30:00,24.9,20.5,30.24,SSE,148,3.0,3.0,83,0.00,,,0.00,Wunderground v.1.15,2013-03-27 12:30:00,
2013-03-27 07:40:00,25.1,20.7,30.25,SSE,155,3.0,3.0,83,0.00,,,0.00,Wunderground v.1.15,2013-03-27 12:40:00,
2013-03-27 07:50:00,25.5,20.8,30.25,SSE,157,3.0,6.0,82,0.00,,,0.00,Wunderground v.1.15,2013-03-27 12:50:00,
2013-03-27 08:00:00,26.0,21.3,30.26,SSE,150,3.0,6.0,82,0.00,,,0.00,Wunderground v.1.15,2013-03-27 13:00:00,
2013-03-27 08:05:00,26.3,21.6,30.26,SSE,147,3.0,7.0,82,0.00,,,0.00,Wunderground v.1.15,2013-03-27 13:05:00,
2013-03-27 08:15:00,26.7,21.9,30.26,SSE,154,3.0,6.0,82,0.00,,,0.00,Wunderground v.1.15,2013-03-27 13:15:00,
2013-03-27 08:20:00,26.9,22.1,30.26,SSE,150,3.0,6.0,82,0.00,,,0.00,Wunderground v.1.15,2013-03-27 13:20:00,
2013-03-27 08:30:00,27.0,21.9,30.26,SSE,150,4.0,4.0,81,0.00,,,0.00,Wunderground v.1.15,2013-03-27 13:30:00,
2013-03-27 08:40:00,28.1,23.3,30.26,SE,146,3.0,3.0,82,0.00,,,0.00,Wunderground v.1.15,2013-03-27 13:40:00,
2013-03-27 08:45:00,28.6,23.5,30.26,SSE,152,4.0,4.0,81,0.00,,,0.00,Wunderground v.1.15,2013-03-27 13:45:00,
2013-03-27 08:55:00,29.3,23.6,30.26,SSE,154,5.0,5.0,79,0.00,,,0.00,Wunderground v.1.15,2013-03-27 13:55:00,
2013-03-27 09:05:00,30.2,24.2,30.26,SSE,154,6.0,9.0,78,0.00,,,0.00,Wunderground v.1.15,2013-03-27 14:05:00,
2013-03-27 09:10:00,30.2,23.9,30.26,South,169,6.0,6.0,77,0.00,,,0.00,Wunderground v.1.15,2013-03-27 14:10:00,
2013-03-27 09:20:00,30.8,24.1,30.26,SSE,162,7.0,7.0,76,0.00,,,0.00,Wunderground v.1.15,2013-03-27 14:20:00,
2013-03-27 09:30:00,31.2,24.5,30.26,SSE,155,7.0,8.0,76,0.00,,,0.00,Wunderground v.1.15,2013-03-27 14:30:00,
2013-03-27 09:40:00,32.0,24.6,30.26,South,173,7.0,10.0,74,0.00,,,0.00,Wunderground v.1.15,2013-03-27 14:40:00,
2013-03-27 09:50:00,33.2,24.8,30.26,South,169,7.0,7.0,71,0.00,,,0.00,Wunderground v.1.15,2013-03-27 14:50:00,
2013-03-27 09:55:00,33.7,25.0,30.26,SSE,159,8.0,8.0,70,0.00,,,0.00,Wunderground v.1.15,2013-03-27 14:55:00,
2013-03-27 10:00:00,34.0,24.9,30.26,SSW,202,8.0,8.0,69,0.00,,,0.00,Wunderground v.1.15,2013-03-27 15:00:00,
2013-03-27 10:10:00,35.2,25.7,30.26,South,185,8.0,8.0,68,0.00,,,0.00,Wunderground v.1.15,2013-03-27 15:10:00,
2013-03-27 10:20:00,35.4,25.5,30.25,SSE,166,7.0,7.0,67,0.00,,,0.00,Wunderground v.1.15,2013-03-27 15:20:00,
2013-03-27 10:30:00,36.6,26.3,30.25,SSE,159,7.0,7.0,66,0.00,,,0.00,Wunderground v.1.15,2013-03-27 15:30:00,
2013-03-27 10:35:00,37.5,26.4,30.25,South,173,7.0,7.0,64,0.00,,,0.00,Wunderground v.1.15,2013-03-27 15:35:00,
2013-03-27 10:45:00,38.9,27.0,30.25,SE,146,6.0,8.0,62,0.00,,,0.00,Wunderground v.1.15,2013-03-27 15:45:00,
2013-03-27 10:55:00,39.6,26.8,30.25,SSE,149,6.0,6.0,60,0.00,,,0.00,Wunderground v.1.15,2013-03-27 15:55:00,
2013-03-27 11:00:00,39.8,26.6,30.25,SE,140,6.0,6.0,59,0.00,,,0.00,Wunderground v.1.15,2013-03-27 16:00:00,
2013-03-27 11:10:00,40.8,26.7,30.25,SE,140,8.0,11.0,57,0.00,,,0.00,Wunderground v.1.15,2013-03-27 16:10:00,
2013-03-27 11:20:00,41.0,26.5,30.25,SE,140,7.0,7.0,56,0.00,,,0.00,Wunderground v.1.15,2013-03-27 16:20:00,
2013-03-27 11:30:00,41.8,26.4,30.25,SSE,155,7.0,7.0,54,0.00,,,0.00,Wunderground v.1.15,2013-03-27 16:30:00,
2013-03-27 11:40:00,43.3,27.3,30.25,SSE,150,6.0,8.0,53,0.00,,,0.00,Wunderground v.1.15,2013-03-27 16:40:00,
2013-03-27 11:45:00,43.2,27.2,30.25,SSE,156,7.0,8.0,53,0.00,,,0.00,Wunderground v.1.15,2013-03-27 16:45:00,
2013-03-27 11:55:00,43.8,27.8,30.25,South,169,7.0,7.0,53,0.00,,,0.00,Wunderground v.1.15,2013-03-27 16:55:00,
2013-03-27 12:00:00,44.1,27.6,30.25,SSE,161,7.0,13.0,52,0.00,,,0.00,Wunderground v.1.15,2013-03-27 17:00:00,
2013-03-27 12:10:00,44.6,27.1,30.25,SE,139,6.0,6.0,50,0.00,,,0.00,Wunderground v.1.15,2013-03-27 17:10:00,
2013-03-27 12:20:00,45.1,27.1,30.24,South,186,7.0,7.0,49,0.00,,,0.00,Wunderground v.1.15,2013-03-27 17:20:00,
2013-03-27 12:30:00,45.7,28.1,30.24,SSE,160,6.0,13.0,50,0.00,,,0.00,Wunderground v.1.15,2013-03-27 17:30:00,
2013-03-27 12:40:00,46.3,28.2,30.24,SE,134,6.0,6.0,49,0.00,,,0.00,Wunderground v.1.15,2013-03-27 17:40:00,
2013-03-27 12:45:00,46.8,27.1,30.24,South,180,7.0,8.0,46,0.00,,,0.00,Wunderground v.1.15,2013-03-27 17:45:00,
2013-03-27 12:55:00,47.3,27.0,30.24,SSE,163,8.0,13.0,45,0.00,,,0.00,Wunderground v.1.15,2013-03-27 17:55:00,
2013-03-27 13:00:00,47.6,27.3,30.23,South,178,8.0,8.0,45,0.00,,,0.00,Wunderground v.1.15,2013-03-27 18:00:00,
2013-03-27 13:10:00,47.3,25.9,30.23,SSW,206,8.0,13.0,43,0.00,,,0.00,Wunderground v.1.15,2013-03-27 18:10:00,
2013-03-27 13:20:00,47.8,26.9,30.23,SSE,157,7.0,7.0,44,0.00,,,0.00,Wunderground v.1.15,2013-03-27 18:20:00,
2013-03-27 13:30:00,48.0,27.1,30.23,South,174,7.0,13.0,44,0.00,,,0.00,Wunderground v.1.15,2013-03-27 18:30:00,
2013-03-27 13:35:00,48.2,27.3,30.23,SSE,149,7.0,13.0,44,0.00,,,0.00,Wunderground v.1.15,2013-03-27 18:35:00,
2013-03-27 13:45:00,48.7,27.2,30.23,SE,141,6.0,13.0,43,0.00,,,0.00,Wunderground v.1.15,2013-03-27 18:45:00,
2013-03-27 13:50:00,48.3,26.2,30.22,SSE,163,6.0,13.0,42,0.00,,,0.00,Wunderground v.1.15,2013-03-27 18:50:00,
2013-03-27 14:00:00,48.8,26.7,30.22,SE,134,7.0,7.0,42,0.00,,,0.00,Wunderground v.1.15,2013-03-27 19:00:00,
2013-03-27 14:10:00,49.3,27.2,30.22,SSW,207,7.0,13.0,42,0.00,,,0.00,Wunderground v.1.15,2013-03-27 19:10:00,
2013-03-27 14:20:00,49.8,27.6,30.22,SSW,197,7.0,13.0,42,0.00,,,0.00,Wunderground v.1.15,2013-03-27 19:20:00,
2013-03-27 14:30:00,50.1,26.7,30.21,SSE,154,7.0,7.0,40,0.00,,,0.00,Wunderground v.1.15,2013-03-27 19:30:00,
2013-03-27 14:35:00,50.5,27.0,30.21,SSW,193,6.0,9.0,40,0.00,,,0.00,Wunderground v.1.15,2013-03-27 19:35:00,
2013-03-27 14:40:00,50.6,26.5,30.21,South,181,6.0,6.0,39,0.00,,,0.00,Wunderground v.1.15,2013-03-27 19:40:00,
2013-03-27 14:50:00,51.1,25.7,30.21,SW,215,6.0,13.0,37,0.00,,,0.00,Wunderground v.1.15,2013-03-27 19:50:00,
2013-03-27 15:00:00,51.3,26.5,30.20,SSW,194,6.0,6.0,38,0.00,,,0.00,Wunderground v.1.15,2013-03-27 20:00:00,
2013-03-27 15:10:00,51.6,26.1,30.20,South,187,6.0,13.0,37,0.00,,,0.00,Wunderground v.1.15,2013-03-27 20:10:00,
2013-03-27 15:15:00,51.7,26.2,30.20,SSW,200,7.0,13.0,37,0.00,,,0.00,Wunderground v.1.15,2013-03-27 20:15:00,
2013-03-27 15:20:00,52.5,26.9,30.20,SSW,210,7.0,13.0,37,0.00,,,0.00,Wunderground v.1.15,2013-03-27 20:20:00,
2013-03-27 15:30:00,52.8,27.2,30.20,SSW,209,6.0,13.0,37,0.00,,,0.00,Wunderground v.1.15,2013-03-27 20:30:00,
2013-03-27 15:40:00,53.3,26.3,30.19,SSE,155,5.0,13.0,35,0.00,,,0.00,Wunderground v.1.15,2013-03-27 20:40:00,
2013-03-27 15:50:00,53.7,26.7,30.19,SSW,208,6.0,14.0,35,0.00,,,0.00,Wunderground v.1.15,2013-03-27 20:50:00,
2013-03-27 16:00:00,53.6,26.6,30.19,South,177,8.0,13.0,35,0.00,,,0.00,Wunderground v.1.15,2013-03-27 21:00:00,
2013-03-27 16:05:00,53.7,26.0,30.19,SSE,148,6.0,13.0,34,0.00,,,0.00,Wunderground v.1.15,2013-03-27 21:05:00,
2013-03-27 16:15:00,54.1,27.0,30.18,SE,146,6.0,13.0,35,0.00,,,0.00,Wunderground v.1.15,2013-03-27 21:15:00,
2013-03-27 16:25:00,53.7,26.7,30.18,SSE,168,7.0,13.0,35,0.00,,,0.00,Wunderground v.1.15,2013-03-27 21:25:00,
2013-03-27 16:30:00,53.9,26.1,30.18,SSW,211,7.0,7.0,34,0.00,,,0.00,Wunderground v.1.15,2013-03-27 21:30:00,
2013-03-27 16:40:00,53.7,27.4,30.18,South,184,8.0,13.0,36,0.00,,,0.00,Wunderground v.1.15,2013-03-27 21:40:00,
2013-03-27 16:50:00,53.8,26.8,30.18,SE,144,7.0,13.0,35,0.00,,,0.00,Wunderground v.1.15,2013-03-27 21:50:00,
2013-03-27 17:00:00,54.5,28.1,30.18,South,183,6.0,13.0,36,0.00,,,0.00,Wunderground v.1.15,2013-03-27 22:00:00,
2013-03-27 17:10:00,54.4,26.6,30.18,SSW,192,7.0,7.0,34,0.00,,,0.00,Wunderground v.1.15,2013-03-27 22:10:00,
2013-03-27 17:15:00,54.7,26.8,30.18,SSE,165,6.0,11.0,34,0.00,,,0.00,Wunderground v.1.15,2013-03-27 22:15:00,
2013-03-27 17:25:00,54.5,26.7,30.18,SE,136,6.0,13.0,34,0.00,,,0.00,Wunderground v.1.15,2013-03-27 22:25:00,
2013-03-27 17:30:00,54.6,26.8,30.18,SSE,164,5.0,5.0,34,0.00,,,0.00,Wunderground v.1.15,2013-03-27 22:30:00,
2013-03-27 17:40:00,54.7,26.8,30.18,South,189,6.0,13.0,34,0.00,,,0.00,Wunderground v.1.15,2013-03-27 22:40:00,
2013-03-27 17:50:00,54.6,26.0,30.18,SSE,162,6.0,13.0,33,0.00,,,0.00,Wunderground v.1.15,2013-03-27 22:50:00,
2013-03-27 18:00:00,54.4,26.6,30.18,South,172,5.0,5.0,34,0.00,,,0.00,Wunderground v.1.15,2013-03-27 23:00:00,
2013-03-27 18:10:00,54.4,26.6,30.18,SE,130,5.0,5.0,34,0.00,,,0.00,Wunderground v.1.15,2013-03-27 23:10:00,
2013-03-27 18:15:00,54.4,25.9,30.18,South,186,5.0,12.0,33,0.00,,,0.00,Wunderground v.1.15,2013-03-27 23:15:00,
2013-03-27 18:20:00,54.3,25.8,30.18,SE,146,6.0,6.0,33,0.00,,,0.00,Wunderground v.1.15,2013-03-27 23:20:00,
2013-03-27 18:30:00,54.0,26.2,30.19,SSE,164,5.0,12.0,34,0.00,,,0.00,Wunderground v.1.15,2013-03-27 23:30:00,
2013-03-27 18:40:00,53.4,27.1,30.19,SSE,150,5.0,12.0,36,0.00,,,0.00,Wunderground v.1.15,2013-03-27 23:40:00,
2013-03-27 18:50:00,52.7,27.8,30.19,SSE,153,5.0,5.0,38,0.00,,,0.00,Wunderground v.1.15,2013-03-27 23:50:00,
2013-03-27 19:00:00,51.9,28.3,30.19,SSE,154,4.0,4.0,40,0.00,,,0.00,Wunderground v.1.15,2013-03-28 00:00:00,
2013-03-27 19:10:00,50.9,28.0,30.19,SSE,154,3.0,12.0,41,0.00,,,0.00,Wunderground v.1.15,2013-03-28 00:10:00,
2013-03-27 19:20:00,49.9,28.3,30.19,SSE,161,3.0,12.0,43,0.00,,,0.00,Wunderground v.1.15,2013-03-28 00:20:00,
2013-03-27 19:30:00,49.0,28.6,30.19,SSE,147,3.0,12.0,45,0.00,,,0.00,Wunderground v.1.15,2013-03-28 00:30:00,
2013-03-27 19:40:00,47.9,28.1,30.19,SE,142,2.0,12.0,46,0.00,,,0.00,Wunderground v.1.15,2013-03-28 00:40:00,
2013-03-27 19:50:00,46.6,28.4,30.20,SE,142,2.0,2.0,49,0.00,,,0.00,Wunderground v.1.15,2013-03-28 00:50:00,
2013-03-27 20:00:00,45.1,28.5,30.20,SE,142,1.0,12.0,52,0.00,,,0.00,Wunderground v.1.15,2013-03-28 01:00:00,
2013-03-27 20:10:00,44.2,28.1,30.20,SE,142,1.0,12.0,53,0.00,,,0.00,Wunderground v.1.15,2013-03-28 01:10:00,
2013-03-27 20:20:00,43.4,27.8,30.20,SE,142,1.0,12.0,54,0.00,,,0.00,Wunderground v.1.15,2013-03-28 01:20:00,
2013-03-27 20:25:00,43.1,28.0,30.20,SE,142,1.0,12.0,55,0.00,,,0.00,Wunderground v.1.15,2013-03-28 01:25:00,
2013-03-27 20:35:00,42.4,27.8,30.20,SE,142,1.0,12.0,56,0.00,,,0.00,Wunderground v.1.15,2013-03-28 01:35:00,
2013-03-27 20:40:00,42.0,27.9,30.21,SE,142,1.0,12.0,57,0.00,,,0.00,Wunderground v.1.15,2013-03-28 01:40:00,
2013-03-27 20:50:00,41.4,27.7,30.21,SE,142,1.0,12.0,58,0.00,,,0.00,Wunderground v.1.15,2013-03-28 01:50:00,
2013-03-27 21:00:00,40.7,27.9,30.21,SE,142,2.0,2.0,60,0.00,,,0.00,Wunderground v.1.15,2013-03-28 02:00:00,
2013-03-27 21:10:00,40.4,28.0,30.22,SE,126,2.0,12.0,61,0.00,,,0.00,Wunderground v.1.15,2013-03-28 02:10:00,
2013-03-27 21:15:00,40.1,28.1,30.22,SE,134,2.0,12.0,62,0.00,,,0.00,Wunderground v.1.15,2013-03-28 02:15:00,
2013-03-27 21:25:00,39.7,27.7,30.22,SE,134,2.0,12.0,62,0.00,,,0.00,Wunderground v.1.15,2013-03-28 02:25:00,
2013-03-27 21:30:00,39.4,27.8,30.22,SE,132,2.0,2.0,63,0.00,,,0.00,Wunderground v.1.15,2013-03-28 02:30:00,
2013-03-27 21:40:00,38.6,27.5,30.23,SE,132,1.0,12.0,64,0.00,,,0.00,Wunderground v.1.15,2013-03-28 02:40:00,
2013-03-27 21:50:00,38.1,27.7,30.23,SE,130,1.0,12.0,66,0.00,,,0.00,Wunderground v.1.15,2013-03-28 02:50:00,
2013-03-27 22:00:00,37.8,27.5,30.24,SE,130,2.0,2.0,66,0.00,,,0.00,Wunderground v.1.15,2013-03-28 03:00:00,
2013-03-27 22:10:00,37.6,27.6,30.24,ESE,123,3.0,12.0,67,0.00,,,0.00,Wunderground v.1.15,2013-03-28 03:10:00,
2013-03-27 22:15:00,37.6,27.6,30.24,SE,127,3.0,12.0,67,0.00,,,0.00,Wunderground v.1.15,2013-03-28 03:15:00,
2013-03-27 22:20:00,37.5,27.5,30.24,SE,138,3.0,3.0,67,0.00,,,0.00,Wunderground v.1.15,2013-03-28 03:20:00,
2013-03-27 22:30:00,37.3,27.7,30.24,SE,136,3.0,3.0,68,0.00,,,0.00,Wunderground v.1.15,2013-03-28 03:30:00,
2013-03-27 22:40:00,37.0,27.4,30.24,SE,135,3.0,12.0,68,0.00,,,0.00,Wunderground v.1.15,2013-03-28 03:40:00,
2013-03-27 22:50:00,36.6,27.0,30.24,SE,138,2.0,2.0,68,0.00,,,0.00,Wunderground v.1.15,2013-03-28 03:50:00,
2013-03-27 22:55:00,36.4,27.2,30.24,SSE,155,2.0,12.0,69,0.00,,,0.00,Wunderground v.1.15,2013-03-28 03:55:00,
2013-03-27 23:00:00,36.2,27.0,30.24,SSE,147,2.0,12.0,69,0.00,,,0.00,Wunderground v.1.15,2013-03-28 04:00:00,
2013-03-27 23:05:00,36.0,26.8,30.25,SSE,148,1.0,12.0,69,0.00,,,0.00,Wunderground v.1.15,2013-03-28 04:05:00,
2013-03-27 23:15:00,35.5,26.7,30.25,SSE,148,1.0,12.0,70,0.00,,,0.00,Wunderground v.1.15,2013-03-28 04:15:00,
2013-03-27 23:20:00,35.3,26.8,30.25,SSE,150,2.0,12.0,71,0.00,,,0.00,Wunderground v.1.15,2013-03-28 04:20:00,
2013-03-27 23:25:00,35.3,26.8,30.25,SSE,150,2.0,12.0,71,0.00,,,0.00,Wunderground v.1.15,2013-03-28 04:25:00,
2013-03-27 23:30:00,35.0,26.5,30.25,SSE,150,1.0,12.0,71,0.00,,,0.00,Wunderground v.1.15,2013-03-28 04:30:00,
2013-03-27 23:40:00,34.4,26.0,30.25,SSE,150,1.0,1.0,71,0.00,,,0.00,Wunderground v.1.15,2013-03-28 04:40:00,
2013-03-27 23:50:00,34.1,26.0,30.25,SSE,150,0.0,12.0,72,0.00,,,0.00,Wunderground v.1.15,2013-03-28 04:50:00,
2013-03-27 23:55:00,33.9,26.2,30.24,SSE,150,0.0,12.0,73,0.00,,,0.00,Wunderground v.1.15,2013-03-28 04:55:00,